Findlay, OH

11:09 PM EST on December 05, 2019 (GMT -0500)
Findlay

Weather History for KFDY - October, 2019

Change the Weather History Date:

Friday, October 25, 2019

  Actual Average Record
Temperature  
Mean Temperature 50 °F -  
Max Temperature 55 °F 57 °F 80 °F (1963)
Min Temperature 46 °F 41 °F 23 °F (1960)
Degree Days  
Heating Degree Days 14    
Moisture  
Dew Point 42 °F    
Average Humidity 74    
Maximum Humidity 83    
Minimum Humidity 64    
Precipitation  
Precipitation 0.00 in - - ()
Sea Level Pressure  
Sea Level Pressure 30.26 in    
Wind  
Wind Speed 4 mph (NNW)    
Max Wind Speed 9 mph    
Max Gust Speed -    
Visibility 10 miles    
Events Rain    
Averages and records for this station are not official NWS values.
T = Trace of Precipitation, MM = Missing Value Source: NWS Daily Summary

Daily Weather History Graph

Daily Weather History Graph

Search for Another Location

Airport or City:

Astronomy

Oct. 25, 2019 Rise Set
Actual Time 7:57 AM EDT 6:39 PM EDT
Civil Twilight 7:28 AM EDT 7:07 PM EDT
Nautical Twilight 6:56 AM EDT 7:40 PM EDT
Astronomical Twilight 6:24 AM EDT 8:11 PM EDT
Moon 4:36 AM EDT (10/25) 5:43 PM EDT (10/25)
Length of Visible Light 11h 38m
Length of Day
10h 42m
Waning Crescent, 9% of the Moon is Illuminated
Oct 25
Waning Crescent
Oct 27
New
Nov 4
First Quarter
Nov 12
Full
Nov 19
Last Quarter

Hourly Weather History & Observations

Time (EDT) Temp. Dew Point Humidity Pressure Visibility Wind Dir Wind Speed Gust Speed Precip Events Conditions
12:53 AM 50.0 °F 42.1 °F 74% 30.28 in 10.0 mi North 4.6 mph - N/A   Overcast
1:53 AM 48.9 °F 43.0 °F 80% 30.30 in 10.0 mi NW 3.5 mph - N/A   Overcast
2:53 AM 50.0 °F 39.9 °F 68% 30.29 in 10.0 mi NE 5.8 mph - N/A   Overcast
3:53 AM 50.0 °F 41.0 °F 71% 30.27 in 10.0 mi East 4.6 mph - N/A   Overcast
4:53 AM 48.9 °F 42.1 °F 77% 30.28 in 10.0 mi NNW 5.8 mph - N/A   Overcast
5:53 AM 48.9 °F 41.0 °F 74% 30.30 in 10.0 mi North 3.5 mph - N/A   Overcast
6:53 AM 48.0 °F 43.0 °F 83% 30.29 in 10.0 mi Calm Calm - N/A   Overcast
7:53 AM 48.0 °F 43.0 °F 83% 30.28 in 10.0 mi Calm Calm - 0.00 in Rain Light Rain
8:53 AM 48.0 °F 43.0 °F 83% 30.29 in 10.0 mi WNW 4.6 mph - 0.00 in   Overcast
9:53 AM 48.9 °F 43.0 °F 80% 30.29 in 10.0 mi NW 5.8 mph - N/A   Overcast
10:53 AM 51.1 °F 44.1 °F 77% 30.28 in 10.0 mi Calm Calm - N/A   Overcast
11:53 AM 53.1 °F 44.1 °F 71% 30.27 in 10.0 mi NW 3.5 mph - N/A   Partly Cloudy
12:53 PM 55.0 °F 45.0 °F 69% 30.27 in 10.0 mi West 5.8 mph - N/A   Mostly Cloudy
1:53 PM 55.0 °F 45.0 °F 69% 30.25 in 10.0 mi West 5.8 mph - N/A   Overcast
2:53 PM 55.9 °F 44.1 °F 64% 30.24 in 10.0 mi WNW 6.9 mph - N/A   Overcast
3:53 PM 55.0 °F 43.0 °F 64% 30.22 in 10.0 mi North 9.2 mph - N/A   Overcast
4:53 PM 54.0 °F 42.1 °F 64% 30.23 in 10.0 mi NNW 5.8 mph - N/A   Partly Cloudy
5:53 PM 53.1 °F 42.1 °F 66% 30.23 in 10.0 mi NNW 6.9 mph - N/A   Clear
6:53 PM 52.0 °F 41.0 °F 66% 30.23 in 10.0 mi Calm Calm - N/A   Clear
7:53 PM 48.0 °F 42.1 °F 80% 30.24 in 10.0 mi South 3.5 mph - N/A   Clear
8:53 PM 48.9 °F 41.0 °F 74% 30.24 in 10.0 mi NNW 4.6 mph - N/A   Clear
9:53 PM 48.0 °F 41.0 °F 77% 30.24 in 10.0 mi North 4.6 mph - N/A   Clear
10:53 PM 46.9 °F 41.0 °F 80% 30.24 in 10.0 mi NE 5.8 mph - N/A   Clear
11:53 PM 46.9 °F 39.9 °F 77% 30.23 in 10.0 mi NE 4.6 mph - N/A   Clear